• In Hungary
  • List of Countries
  • For 7 days
  • Water Temperature
  • Satellite Maps
  • Weather Map
  • News
  • Weather Widgets
  • user-avatar
    Login

    Hourly Weather Fudżajra

    Today, 19 July, Thursday

    Time Temperature Precipitation Wind Pressure Humidity
    00:00 +34°C° 0 mm 2 mps 708 mmHg 44%
    01:00 +34°C° 0 mm 2 mps 708 mmHg 47%
    02:00 +34°C° 0 mm 2 mps 708 mmHg 47%
    03:00 +32°C° 0 mm 2 mps 708 mmHg 48%
    04:00 +32°C° 0 mm 1 mps 708 mmHg 36%
    05:00 +33°C° 0 mm 1 mps 709 mmHg 33%
    06:00 +33°C° 0 mm 1 mps 709 mmHg 31%
    07:00 +35°C° 0 mm 2 mps 709 mmHg 28%
    08:00 +36°C° 0 mm 2 mps 709 mmHg 25%
    09:00 +38°C° 0 mm 3 mps 709 mmHg 22%
    10:00 +40°C° 0 mm 4 mps 710 mmHg 20%
    11:00 +41°C° 0 mm 4 mps 709 mmHg 19%
    12:00 +43°C° 0 mm 5 mps 709 mmHg 18%
    13:00 +45°C° 0 mm 6 mps 709 mmHg 17%
    14:00 +45°C° 0 mm 6 mps 709 mmHg 17%
    15:00 +44°C° 0 mm 6 mps 709 mmHg 18%
    16:00 +44°C° 0 mm 6 mps 708 mmHg 18%
    17:00 +42°C° 0 mm 6 mps 708 mmHg 22%
    18:00 +40°C° 0 mm 5 mps 708 mmHg 25%
    19:00 +37°C° 0 mm 4 mps 708 mmHg 29%
    20:00 +37°C° 0 mm 3 mps 708 mmHg 31%
    21:00 +36°C° 0 mm 2 mps 708 mmHg 34%
    22:00 +35°C° 0 mm 2 mps 709 mmHg 36%
    23:00 +35°C° 0 mm 2 mps 708 mmHg 35%

    Tomorrow, 20 July, Friday

    Time Temperature Precipitation Wind Pressure Humidity
    00:00 +34°C° 0 mm 2 mps 708 mmHg 34%
    01:00 +33°C° 0 mm 1 mps 707 mmHg 33%
    02:00 +32°C° 0 mm 1 mps 707 mmHg 30%
    03:00 +32°C° 0 mm 1 mps 707 mmHg 28%
    04:00 +32°C° 0 mm 1 mps 707 mmHg 25%
    05:00 +33°C° 0 mm 1 mps 707 mmHg 22%
    06:00 +34°C° 0 mm 1 mps 707 mmHg 20%
    07:00 +35°C° 0 mm 1 mps 708 mmHg 17%
    08:00 +37°C° 0 mm 2 mps 708 mmHg 15%
    09:00 +39°C° 0 mm 2 mps 708 mmHg 14%
    10:00 +42°C° 0 mm 3 mps 709 mmHg 12%
    11:00 +43°C° 0 mm 4 mps 708 mmHg 12%
    12:00 +45°C° 0 mm 5 mps 708 mmHg 12%
    13:00 +46°C° 0 mm 5 mps 708 mmHg 12%
    14:00 +45°C° 0 mm 5 mps 708 mmHg 13%
    15:00 +45°C° 0 mm 5 mps 707 mmHg 13%
    16:00 +45°C° 0 mm 5 mps 707 mmHg 14%
    17:00 +43°C° 0 mm 5 mps 707 mmHg 15%
    18:00 +41°C° 0 mm 4 mps 707 mmHg 17%
    19:00 +39°C° 0 mm 3 mps 707 mmHg 18%
    20:00 +38°C° 0 mm 3 mps 707 mmHg 19%
    21:00 +37°C° 0 mm 2 mps 707 mmHg 21%
    22:00 +35°C° 0 mm 1 mps 707 mmHg 22%
    23:00 +34°C° 0 mm 1 mps 707 mmHg 21%

    Day after tomorrow, 21 July, Saturday

    Time Temperature Precipitation Wind Pressure Humidity
    00:00 +34°C° 0 mm 1 mps 706 mmHg 20%
    01:00 +34°C° 0 mm 1 mps 706 mmHg 18%
    02:00 +33°C° 0 mm 1 mps 706 mmHg 17%
    03:00 +33°C° 0 mm 1 mps 706 mmHg 16%
    04:00 +32°C° 0 mm 1 mps 705 mmHg 15%
    05:00 +34°C° 0 mm 1 mps 706 mmHg 14%
    06:00 +35°C° 0 mm 1 mps 706 mmHg 13%
    07:00 +36°C° 0 mm 1 mps 706 mmHg 12%
    08:00 +39°C° 0 mm 2 mps 707 mmHg 11%
    09:00 +41°C° 0 mm 2 mps 707 mmHg 10%
    10:00 +44°C° 0 mm 3 mps 708 mmHg 10%
    11:00 +45°C° 0 mm 3 mps 708 mmHg 9%
    12:00 +47°C° 0 mm 4 mps 707 mmHg 9%
    13:00 +48°C° 0 mm 5 mps 707 mmHg 9%
    14:00 +48°C° 0 mm 5 mps 707 mmHg 9%
    15:00 +48°C° 0 mm 5 mps 707 mmHg 9%
    16:00 +48°C° 0 mm 5 mps 706 mmHg 10%
    17:00 +45°C° 0 mm 4 mps 706 mmHg 12%
    18:00 +43°C° 0 mm 3 mps 706 mmHg 14%
    19:00 +42°C° 0 mm 3 mps 706 mmHg 16%
    20:00 +39°C° 0 mm 2 mps 706 mmHg 17%
    21:00 +37°C° 0 mm 1 mps 707 mmHg 19%
    22:00 +36°C° 0 mm 1 mps 707 mmHg 20%
    23:00 +36°C° 0 mm 1 mps 706 mmHg 20%

    22 July, Sunday

    Time Temperature Precipitation Wind Pressure Humidity
    00:00 +35°C° 0 mm 1 mps 706 mmHg 20%
    01:00 +35°C° 0 mm 1 mps 706 mmHg 20%
    02:00 +34°C° 0 mm 1 mps 706 mmHg 20%
    03:00 +34°C° 0 mm 1 mps 706 mmHg 21%
    04:00 +33°C° 0 mm 1 mps 705 mmHg 21%
    05:00 +34°C° 0 mm 1 mps 706 mmHg 20%
    06:00 +36°C° 0 mm 1 mps 706 mmHg 19%
    07:00 +37°C° 0 mm 1 mps 707 mmHg 19%
    08:00 +40°C° 0 mm 1 mps 707 mmHg 16%
    09:00 +42°C° 0 mm 2 mps 707 mmHg 13%
    10:00 +45°C° 0 mm 3 mps 708 mmHg 11%
    11:00 +46°C° 0 mm 3 mps 707 mmHg 10%
    12:00 +48°C° 0 mm 4 mps 707 mmHg 10%
    13:00 +49°C° 0 mm 5 mps 707 mmHg 10%
    14:00 +48°C° 0 mm 5 mps 706 mmHg 11%
    15:00 +48°C° 0 mm 5 mps 706 mmHg 13%
    16:00 +47°C° 0 mm 5 mps 706 mmHg 15%
    17:00 +45°C° 0 mm 4 mps 706 mmHg 18%
    18:00 +43°C° 0 mm 4 mps 705 mmHg 22%
    19:00 +40°C° 0 mm 3 mps 705 mmHg 26%
    20:00 +39°C° 0 mm 2 mps 706 mmHg 28%
    21:00 +37°C° 0 mm 1 mps 706 mmHg 30%
    22:00 +36°C° 0 mm 1 mps 706 mmHg 33%
    23:00 +36°C° 0 mm 1 mps 706 mmHg 32%

    23 July, Monday

    Time Temperature Precipitation Wind Pressure Humidity
    00:00 +35°C° 0 mm 1 mps 705 mmHg 31%
    01:00 +35°C° 0 mm 1 mps 705 mmHg 30%
    02:00 +34°C° 0 mm 1 mps 705 mmHg 30%
    03:00 +34°C° 0 mm 1 mps 705 mmHg 29%
    04:00 +35°C° 0 mm 2 mps 704 mmHg 29%
    05:00 +35°C° 0 mm 2 mps 705 mmHg 28%
    06:00 +35°C° 0 mm 1 mps 705 mmHg 26%
    07:00 +36°C° 0 mm 1 mps 706 mmHg 24%
    08:00 +39°C° 0 mm 2 mps 706 mmHg 21%
    09:00 +41°C° 0 mm 2 mps 706 mmHg 18%
    10:00 +44°C° 0 mm 3 mps 706 mmHg 15%
    11:00 +45°C° 0 mm 3 mps 706 mmHg 15%
    12:00 +47°C° 0 mm 4 mps 705 mmHg 15%
    13:00 +48°C° 0 mm 4 mps 705 mmHg 14%
    14:00 +48°C° 0 mm 4 mps 705 mmHg 15%
    15:00 +48°C° 0 mm 4 mps 704 mmHg 16%
    16:00 +48°C° 0 mm 4 mps 704 mmHg 17%
    17:00 +45°C° 0 mm 3 mps 704 mmHg 21%
    18:00 +43°C° 0 mm 3 mps 704 mmHg 26%
    19:00 +42°C° 0 mm 3 mps 704 mmHg 30%
    20:00 +40°C° 0 mm 2 mps 704 mmHg 34%
    21:00 +38°C° 0 mm 2 mps 704 mmHg 39%
    22:00 +37°C° 0 mm 2 mps 705 mmHg 43%
    23:00 +37°C° 0 mm 2 mps 704 mmHg 45%

    24 July, Tuesday

    Time Temperature Precipitation Wind Pressure Humidity
    00:00 +35°C° 0 mm 1 mps 704 mmHg 47%
    01:00 +34°C° 0 mm 1 mps 704 mmHg 48%
    02:00 +35°C° 0 mm 2 mps 704 mmHg 49%
    03:00 +34°C° 0 mm 2 mps 703 mmHg 50%
    04:00 +34°C° 0 mm 2 mps 703 mmHg 51%
    05:00 +34°C° 0 mm 2 mps 704 mmHg 49%
    06:00 +35°C° 0 mm 2 mps 704 mmHg 46%
    07:00 +36°C° 0 mm 2 mps 705 mmHg 43%
    08:00 +38°C° 0 mm 2 mps 705 mmHg 35%
    09:00 +40°C° 0 mm 2 mps 705 mmHg 27%
    10:00 +43°C° 0 mm 2 mps 706 mmHg 19%
    11:00 +45°C° 0 mm 3 mps 706 mmHg 18%
    12:00 +46°C° 0 mm 3 mps 706 mmHg 17%
    13:00 +47°C° 0 mm 3 mps 705 mmHg 15%
    14:00 +47°C° 0 mm 3 mps 705 mmHg 16%
    15:00 +47°C° 0 mm 3 mps 705 mmHg 16%
    16:00 +47°C° 0 mm 3 mps 705 mmHg 17%
    17:00 +46°C° 0 mm 3 mps 705 mmHg 21%
    18:00 +44°C° 0 mm 3 mps 705 mmHg 24%
    19:00 +43°C° 0 mm 3 mps 705 mmHg 28%
    20:00 +40°C° 0 mm 2 mps 706 mmHg 33%
    21:00 +39°C° 0 mm 2 mps 706 mmHg 38%
    22:00 +38°C° 0 mm 2 mps 706 mmHg 43%
    23:00 +37°C° 0 mm 2 mps 706 mmHg 45%
    Show more